Starlink 31188

operational
NORAD ID: 58804 Int'l Des: 2024-012 Owner: SPXS Country: US Constellation: starlink
LEOCIRCULAR

About Starlink 31188

Description loading...

Live Position

Loading 3D Globe...

Upcoming Passes

Altitude History

Altitude vs Time

uPlot chart will show altitude changes over time

Two-Line Element Set

1 58804U 24012T 25348.54945479 -.00003863 00000-0 -13096-3 0 9997
2 58804 43.0014 286.1834 0001491 280.6105 79.4578 15.27574446108215
Epoch: Dec 14, 2025 • Age: 28 hours

Current Status

Altitude 495.3 km
Velocity 7.62 km/s
Sub-Earth Point -42.82°S, 142.23°W
Launch Date Jan 15, 2024
Age 1.9 years
Type internet

Technical Details

Classification Payload
Mass 730.00 kg
Dry Mass 700.00 kg
Total Mass 730.00 kg
Length 0.30 m
Diameter 4.10 m
Span 29.00 m
Shape Box + pan
Manufacturer SPXS
Bus Type Starlink V2M
Phase Status In Orbit
Owner/State SPXS/US

Large Constellations

Loading constellations...